FW7738 Weather Reports


time (UTC)temp
C
wind
direction
speed
KPH
gust
KPH
rain 1hr
cm
rain 24hr
cm
rain mn
cm
humidity
%
barometer
mb
20260904102023 32 148 4.8 12.9 0.00 0.00 0.00 50 1018.4
20260904101018 31 186 3.2 11.3 0.00 0.00 0.00 50 1018.4
20260904100034 31 143 4.8 9.7 0.00 0.00 0.00 51 1018.5
20260904095029 31 156 6.4 14.5 0.00 0.00 0.00 52 1018.5
20260904094024 30 168 6.4 11.3 0.00 0.00 0.00 54 1018.6
20260904093019 30 146 4.8 11.3 0.00 0.00 0.00 53 1018.7
20260904092035 30 162 6.4 11.3 0.00 0.00 0.00 54 1018.6
20260904091050 30 160 3.2 6.4 0.00 0.00 0.00 53 1018.6
20260904090025 31 7 1.6 4.8 0.00 0.00 0.00 52 1018.6
20260904085020 30 345 1.6 4.8 0.00 0.00 0.00 52 1018.4
20260904084035 29 196 0.0 4.8 0.00 0.00 0.00 55 1018.4
20260904083030 28 233 1.6 4.8 0.00 0.00 0.00 57 1018.5
20260904082025 28 220 1.6 4.8 0.00 0.00 0.00 60 1018.4
20260904081021 28 296 1.6 4.8 0.00 0.00 0.00 61 1018.3
20260904080036 27 292 0.0 4.8 0.00 0.00 0.00 62 1018.3
20260904075032 27 263 1.6 3.2 0.00 0.00 0.00 64 1018.4
20260904074047 27 275 0.0 3.2 0.00 0.00 0.00 65 1018.4
20260904073022 26 315 0.0 3.2 0.00 0.00 0.00 67 1018.5
20260904072058 26 268 1.6 3.2 0.00 0.00 0.00 69 1018.6
20260904071033 25 342 0.0 1.6 0.00 0.00 0.00 71 1018.6
20260904070048 25 4 0.0 1.6 0.00 0.00 0.00 74 1018.5
20260904065023 25 299 1.6 3.2 0.00 0.00 0.00 75 1018.7
20260904064019 25 291 0.0 3.2 0.00 0.00 0.00 77 1018.6
20260904063054 24 301 0.0 1.6 0.00 0.00 0.00 80 1018.7
20260904062030 24 277 1.6 3.2 0.00 0.00 0.00 82 1018.7
20260904061025 23 292 0.0 1.6 0.00 0.00 0.00 84 1018.6
20260904060021 23 286 0.0 1.6 0.00 0.00 0.00 84 1018.6
20260904055016 23 0.0 0.0 0.00 0.00 0.00 85 1018.5
20260904054051 23 0.0 0.0 0.00 0.00 0.00 85 1018.5
20260904053027 23 0.0 0.0 0.00 0.00 0.00 85 1018.5
20260904052022 23 0.0 0.0 0.00 0.00 0.00 85 1018.6
20260904051017 23 0.0 0.0 0.00 0.00 0.00 85 1018.6
20260904050033 23 0.0 0.0 0.00 0.00 0.00 85 1018.5
20260904045028 23 0.0 0.0 0.00 0.00 0.00 86 1018.5
20260904044023 23 0.0 0.0 0.00 0.00 0.00 86 1018.6
20260904043019 23 0.0 0.0 0.00 0.00 0.00 86 1018.6
20260904042034 23 0.0 0.0 0.00 0.00 0.00 86 1018.6
20260904041029 23 301 0.0 1.6 0.00 0.00 0.00 86 1018.6
20260904040045 23 301 1.6 1.6 0.00 0.00 0.00 86 1018.7
20260904035039 23 0.0 0.0 0.00 0.00 0.00 86 1018.6
20260904034034 23 0.0 0.0 0.00 0.00 0.00 85 1018.7
20260904033030 23 0.0 0.0 0.00 0.00 0.00 85 1018.7
20260904032026 23 0.0 0.0 0.00 0.00 0.00 84 1018.7
20260904031021 24 0.0 0.0 0.00 0.00 0.00 85 1018.9
20260904030056 24 287 0.0 1.6 0.00 0.00 0.00 85 1018.8
20260904025051 24 293 0.0 1.6 0.00 0.00 0.00 85 1018.8
20260904024027 24 290 0.0 1.6 0.00 0.00 0.00 85 1018.6
20260904023022 24 0.0 0.0 0.00 0.00 0.00 85 1018.8
20260904022017 24 0.0 0.0 0.00 0.00 0.00 85 1018.9
20260904021033 24 278 0.0 1.6 0.00 0.00 0.00 85 1019.0
20260904020028 24 275 0.0 1.6 0.00 0.00 0.00 84 1019.0
20260904015023 24 262 1.6 3.2 0.00 0.00 0.00 84 1019.1
20260904014039 24 274 1.6 3.2 0.00 0.00 0.00 83 1019.1
20260904013055 24 289 1.6 3.2 0.00 0.00 0.00 83 1019.2
20260904012030 24 265 1.6 3.2 0.00 0.00 0.00 84 1019.3
20260904011025 24 268 1.6 3.2 0.00 0.00 0.00 85 1019.4
20260904010021 25 269 0.0 3.2 0.00 0.00 0.00 86 1019.5
20260904005016 25 235 0.0 1.6 0.00 0.00 0.00 86 1019.5
20260904004031 25 273 1.6 3.2 0.00 0.00 0.00 86 1019.5
20260904003027 25 253 3.2 6.4 0.00 0.00 0.00 86 1019.4
20260904002021 25 260 3.2 6.4 0.00 0.00 0.00 86 1019.6
20260904001017 25 278 1.6 4.8 0.00 0.00 0.00 87 1019.6
20260904000033 25 284 1.6 3.2 0.00 0.00 0.00 87 1019.7
20260903235027 25 291 1.6 3.2 0.00 0.00 0.00 88 1019.8
20260903234022 25 306 1.6 4.8 0.00 0.00 0.00 88 1019.8
20260903233018 25 287 1.6 3.2 0.00 0.00 0.00 87 1019.9
20260903232034 25 298 1.6 4.8 0.00 0.00 0.00 87 1019.9
20260903231028 25 303 0.0 3.2 0.00 0.00 0.00 87 1019.9
20260903230024 25 0.0 0.0 0.00 0.00 0.00 87 1019.9
20260903225020 25 319 0.0 3.2 0.00 0.00 0.00 87 1020.0
20260903224035 25 0.0 0.0 0.00 0.00 0.00 87 1020.0
20260903223030 25 39 0.0 1.6 0.00 0.00 0.00 87 1020.1
20260903222026 25 39 0.0 1.6 0.00 0.00 0.00 87 1020.2
20260903221021 25 0.0 0.0 0.00 0.00 0.00 87 1020.2
20260903220016 25 0.0 0.0 0.00 0.00 0.00 87 1020.2
20260903215032 26 0.0 0.0 0.00 0.00 0.00 87 1020.4
20260903214047 26 43 0.0 1.6 0.00 0.00 0.00 87 1020.5
20260903213022 26 0.0 0.0 0.00 0.00 0.00 87 1020.6
20260903212038 26 0.0 0.0 0.00 0.00 0.00 87 1020.6
20260903211053 26 0.0 0.0 0.00 0.00 0.00 87 1020.6
20260903210028 26 0.0 0.0 0.00 0.00 0.00 87 1020.7
20260903205023 26 45 0.0 1.6 0.00 0.00 0.00 86 1020.6
20260903204018 26 48 0.0 1.6 0.00 0.00 0.00 86 1020.5
20260903203053 26 62 0.0 4.8 0.00 0.00 0.00 86 1020.3
20260903202030 26 67 0.0 1.6 0.00 0.00 0.00 86 1020.3
20260903201024 26 71 0.0 1.6 0.00 0.00 0.00 86 1020.4
20260903200019 26 63 1.6 3.2 0.00 0.00 0.00 86 1020.1
20260903195035 26 67 0.0 3.2 0.00 0.00 0.00 86 1020.0
20260903194030 26 80 1.6 6.4 0.00 0.00 0.00 85 1020.0
20260903193025 26 72 1.6 4.8 0.00 0.00 0.00 85 1019.8
20260903192020 26 71 1.6 6.4 0.00 0.00 0.00 85 1019.6
20260903191016 26 80 1.6 4.8 0.00 0.00 0.00 85 1019.5
20260903190032 26 88 3.2 6.4 0.00 0.00 0.00 84 1019.3
20260903185027 26 98 4.8 9.7 0.00 0.00 0.00 84 1019.2
20260903184022 26 89 3.2 6.4 0.00 0.00 0.00 84 1019.2
20260903183017 26 91 4.8 11.3 0.00 0.00 0.00 83 1019.1
20260903182033 26 93 8.0 12.9 0.00 0.00 0.00 83 1019.1
20260903181028 26 84 4.8 12.9 0.00 0.00 0.00 83 1019.0
20260903180104 26 95 8.0 14.5 0.00 0.00 0.00 82 1019.0
20260903175020 27 91 6.4 14.5 0.00 0.00 0.00 82 1018.9
20260903174035 27 91 6.4 14.5 0.00 0.00 0.00 80 1018.9
20260903173030 27 102 9.7 17.7 0.00 0.00 0.00 79 1018.9
20260903172046 27 100 8.0 14.5 0.00 0.00 0.00 79 1018.9
20260903171022 27 86 8.0 12.9 0.00 0.00 0.00 75 1018.8
20260903170016 27 96 11.3 20.9 0.00 0.00 0.00 75 1018.7
20260903165032 27 87 9.7 17.7 0.00 0.00 0.00 75 1018.8
20260903164027 27 102 11.3 17.7 0.00 0.00 0.00 76 1018.8
20260903163023 27 89 9.7 20.9 0.00 0.00 0.00 74 1018.8
20260903162018 27 107 12.9 24.1 0.00 0.00 0.00 74 1018.9
20260903161033 28 133 11.3 24.1 0.00 0.00 0.00 73 1018.9
20260903160029 28 88 9.7 22.5 0.00 0.00 0.00 71 1018.9
20260903155024 28 133 11.3 22.5 0.00 0.00 0.00 70 1018.9
20260903154019 28 109 11.3 24.1 0.00 0.00 0.00 70 1018.9
20260903153054 28 126 12.9 20.9 0.00 0.00 0.00 69 1019.0
20260903152030 28 120 11.3 22.5 0.00 0.00 0.00 68 1019.0
20260903151025 28 132 14.5 22.5 0.00 0.00 0.00 66 1019.0
20260903150020 28 111 12.9 22.5 0.00 0.00 0.00 66 1019.0
20260903145035 29 98 11.3 27.4 0.00 0.00 0.00 65 1019.0
20260903144030 29 107 12.9 22.5 0.00 0.00 0.00 65 1019.2
20260903143025 29 106 9.7 17.7 0.00 0.00 0.00 64 1019.3
20260903142101 29 102 11.3 20.9 0.00 0.00 0.00 63 1019.3
20260903141016 30 122 12.9 22.5 0.00 0.00 0.00 59 1019.3
20260903140031 30 97 9.7 16.1 0.00 0.00 0.00 59 1019.4
20260903135026 30 117 11.3 22.5 0.00 0.00 0.00 60 1019.5
20260903134021 30 120 11.3 22.5 0.00 0.00 0.00 61 1019.6
20260903133017 30 104 9.7 22.5 0.00 0.00 0.00 61 1019.7
20260903132032 30 104 11.3 20.9 0.00 0.00 0.00 58 1019.7
20260903131027 30 133 9.7 16.1 0.00 0.00 0.00 57 1019.9
20260903130022 30 105 9.7 20.9 0.00 0.00 0.00 58 1019.8
20260903125018 30 115 9.7 20.9 0.00 0.00 0.00 58 1019.9
20260903124033 30 122 11.3 25.7 0.00 0.00 0.00 61 1019.9
20260903123028 30 103 8.0 16.1 0.00 0.00 0.00 61 1020.0
20260903122023 30 128 8.0 16.1 0.00 0.00 0.00 64 1020.0
20260903121019 30 103 9.7 22.5 0.00 0.00 0.00 66 1020.1
20260903120034 30 116 9.7 22.5 0.00 0.00 0.00 67 1020.2
20260903115029 30 120 8.0 20.9 0.00 0.00 0.00 68 1020.2
20260903114025 29 127 9.7 16.1 0.00 0.00 0.00 69 1020.4
20260903113020 30 103 9.7 16.1 0.00 0.00 0.00 68 1020.4
20260903112115 30 128 8.0 16.1 0.00 0.00 0.00 68 1020.5
20260903111030 29 150 6.4 16.1 0.00 0.00 0.00 69 1020.6
20260903110025 29 156 8.0 12.9 0.00 0.00 0.00 70 1020.7
20260903105021 28 111 8.0 14.5 0.00 0.00 0.00 72 1020.8
20260903104016 28 111 9.7 22.5 0.00 0.00 0.00 74 1020.9
20260903103031 28 137 9.7 22.5 0.00 0.00 0.00 73 1021.0